Fort Rucker / Ozark, AL

8:28 PM CDT on March 30, 2017 (GMT -0500)
Fort Rucker / Ozark

Weather History for KLOR - January, 2014

Change the Weather History Date:

Wednesday, January 22, 2014

  Actual Average (KOZR) Record (KOZR)
Temperature  
Mean Temperature 36 °F -  
Max Temperature 46 °F 58 °F 78 °F (1999)
Min Temperature 25 °F 36 °F 23 °F (2009)
Degree Days  
Heating Degree Days 30    
Moisture  
Dew Point 12 °F    
Average Humidity 48    
Maximum Humidity 75    
Minimum Humidity 16    
Precipitation  
Precipitation 0.00 in - - ()
Sea Level Pressure  
Sea Level Pressure 30.17 in    
Wind  
Wind Speed 6 mph (NW)    
Max Wind Speed 10 mph    
Max Gust Speed -    
Visibility 10 miles    
Events      
Averages and records for this station are not official NWS values.
T = Trace of Precipitation, MM = Missing Value Source: NWS Daily Summary

Daily Weather History Graph

Daily Weather History Graph

Search for Another Location

Airport or City:

Trip Planner

Search our weather history database for the weather conditions in past years. The results will help you decide how hot, cold, wet, or windy it might be!

Date:

Astronomy

Jan. 22, 2014 Rise Set
Actual Time 6:40 AM CST 5:09 PM CST
Civil Twilight 6:14 AM CST 5:34 PM CST
Nautical Twilight 5:45 AM CST 6:04 PM CST
Astronomical Twilight 5:16 AM CST 6:33 PM CST
Moon 11:12 PM CST (1/22) 10:07 AM CST (1/22)
Length of Visible Light 11h 20m
Length of Day
10h 28m
Waning Gibbous, 65% of the Moon is Illuminated
Jan 22
Waning Gibbous
Jan 23
Last Quarter
Jan 30
New
Feb 6
First Quarter
Feb 14
Full

Hourly Weather History & Observations

Time (CST) Temp. Windchill Dew Point Humidity Pressure Visibility Wind Dir Wind Speed Gust Speed Precip Events Conditions
12:53 AM 28.9 °F 21.9 °F 15.1 °F 56% 30.12 in 10.0 mi NW 6.9 mph - N/A   Clear
1:53 AM 28.0 °F 20.8 °F 15.1 °F 58% 30.12 in 10.0 mi NNW 6.9 mph - N/A   Clear
2:53 AM 28.0 °F 21.7 °F 15.1 °F 58% 30.13 in 10.0 mi NNW 5.8 mph - N/A   Clear
3:53 AM 27.0 °F 20.5 °F 14.0 °F 58% 30.14 in 10.0 mi NNW 5.8 mph - N/A   Clear
4:53 AM 26.1 °F 18.4 °F 14.0 °F 60% 30.16 in 10.0 mi NW 6.9 mph - N/A   Clear
5:53 AM 25.0 °F 17.1 °F 14.0 °F 63% 30.17 in 10.0 mi NNW 6.9 mph - N/A   Clear
6:53 AM 25.0 °F 18.1 °F 12.9 °F 60% 30.20 in 10.0 mi NNW 5.8 mph - N/A   Clear
7:53 AM 27.0 °F 18.0 °F 14.0 °F 58% 30.22 in 10.0 mi NNW 9.2 mph - N/A   Clear
8:53 AM 30.9 °F 22.8 °F 12.9 °F 47% 30.22 in 10.0 mi North 9.2 mph - N/A   Clear
9:53 AM 33.1 °F 28.7 °F 9.0 °F 37% 30.22 in 10.0 mi NW 4.6 mph - N/A   Clear
10:53 AM 36.0 °F 31.1 °F 8.1 °F 31% 30.21 in 10.0 mi WNW 5.8 mph - N/A   Clear
11:53 AM 39.9 °F 37.8 °F 5.0 °F 23% 30.17 in 10.0 mi Variable 3.5 mph - N/A   Clear
1:53 PM 44.1 °F 41.5 °F 1.9 °F 17% 30.13 in 10.0 mi WNW 4.6 mph - N/A   Unknown
2:53 PM 46.0 °F 41.0 °F 1.9 °F 16% 30.12 in 10.0 mi West 10.4 mph - N/A   Clear
3:53 PM 46.0 °F 41.9 °F 5.0 °F 19% 30.11 in 10.0 mi WNW 8.1 mph - N/A   Clear
4:53 PM 43.0 °F 40.3 °F 6.1 °F 22% 30.14 in 10.0 mi West 4.6 mph - N/A   Clear
5:53 PM 37.0 °F - 10.9 °F 34% 30.15 in 10.0 mi Calm Calm - N/A   Clear
6:53 PM 33.1 °F - 14.0 °F 46% 30.15 in 10.0 mi Calm Calm - N/A   Clear
7:53 PM 30.9 °F - 17.1 °F 57% 30.17 in 10.0 mi Calm Calm - N/A   Clear
8:53 PM 28.0 °F - 18.0 °F 66% 30.19 in 10.0 mi Calm Calm - N/A   Clear
9:53 PM 27.0 °F - 18.0 °F 69% 30.20 in 10.0 mi Calm Calm - N/A   Clear
10:53 PM 28.0 °F - 19.9 °F 72% 30.21 in 10.0 mi Calm Calm - N/A   Clear
11:53 PM 28.0 °F - 21.0 °F 75% 30.21 in 10.0 mi Calm Calm - N/A   Clear